Fryeburg, ME

6:09 AM EDT on April 19, 2018 (GMT -0400)
Eastern Slopes Regional

Weather History for KIZG - December, 2013

Change the Weather History Date:

Friday, December 20, 2013

  Actual Average Record
Temperature  
Mean Temperature 30 °F -  
Max Temperature 34 °F 32 °F 42 °F (2011)
Min Temperature 26 °F 11 °F -11 °F (2004)
Degree Days  
Heating Degree Days 35    
Moisture  
Dew Point 25 °F    
Average Humidity 81    
Maximum Humidity 92    
Minimum Humidity 72    
Precipitation  
Precipitation 0.00 in - - ()
Sea Level Pressure  
Sea Level Pressure 30.00 in    
Wind  
Wind Speed 0 mph (NNW)    
Max Wind Speed 5 mph    
Max Gust Speed -    
Visibility 10 miles    
Events      
Averages and records for this station are not official NWS values.
T = Trace of Precipitation, MM = Missing Value Source: NWS Daily Summary

Daily Weather History Graph

Daily Weather History Graph

Search for Another Location

Airport or City:

Astronomy

Dec. 20, 2013 Rise Set
Actual Time 7:14 AM EST 4:08 PM EST
Civil Twilight 6:41 AM EST 4:41 PM EST
Nautical Twilight 6:05 AM EST 5:17 PM EST
Astronomical Twilight 5:30 AM EST 5:53 PM EST
Moon 7:32 PM EST (12/20) 9:01 AM EST (12/20)
Length of Visible Light 9h 59m
Length of Day
8h 53m
Waning Gibbous, 90% of the Moon is Illuminated
Dec 20
Waning Gibbous
Dec 25
Last Quarter
Jan 1
New
Jan 7
First Quarter
Jan 15
Full

Hourly Weather History & Observations

Time (EST) Temp. Windchill Dew Point Humidity Pressure Visibility Wind Dir Wind Speed Gust Speed Precip Events Conditions
12:54 AM 27.0 °F - 21.9 °F 81% 30.08 in 10.0 mi Calm Calm - N/A   Clear
1:54 AM 28.0 °F - 21.9 °F 78% 30.11 in 10.0 mi Calm Calm - N/A   Scattered Clouds
2:54 AM 27.0 °F - 21.0 °F 78% 30.11 in 10.0 mi Calm Calm - N/A   Mostly Cloudy
3:54 AM 26.1 °F - 21.0 °F 81% 30.11 in 10.0 mi Calm Calm - N/A   Scattered Clouds
4:54 AM 26.1 °F - 21.0 °F 81% 30.10 in 10.0 mi Calm Calm - N/A   Mostly Cloudy
5:54 AM 26.1 °F - 21.9 °F 84% 30.10 in 10.0 mi Calm Calm - N/A   Overcast
6:54 AM 27.0 °F - 21.9 °F 81% 30.10 in 10.0 mi Calm Calm - N/A   Overcast
7:54 AM 27.0 °F - 21.9 °F 81% 30.10 in 10.0 mi Calm Calm - N/A   Overcast
8:54 AM 28.0 °F - 21.9 °F 78% 30.09 in 10.0 mi Calm Calm - N/A   Overcast
9:54 AM 28.9 °F - 23.0 °F 78% 30.08 in 10.0 mi Calm Calm - N/A   Overcast
10:54 AM 30.0 °F 26.5 °F 23.0 °F 75% 30.04 in 10.0 mi North 3.5 mph - N/A   Overcast
11:54 AM 32.0 °F - 24.1 °F 73% 29.98 in 10.0 mi Calm Calm - N/A   Mostly Cloudy
12:54 PM 33.1 °F - 25.0 °F 72% 29.94 in 10.0 mi Calm Calm - 0.00 in   Overcast
1:54 PM 34.0 °F - 26.1 °F 73% 29.92 in 10.0 mi Calm Calm - 0.00 in   Overcast
2:54 PM 34.0 °F 29.8 °F 26.1 °F 73% 29.93 in 10.0 mi NNW 4.6 mph - N/A   Overcast
3:54 PM 33.1 °F - 27.0 °F 78% 29.92 in 10.0 mi Calm Calm - 0.00 in   Mostly Cloudy
4:54 PM 32.0 °F - 27.0 °F 82% 29.91 in 10.0 mi Calm Calm - 0.00 in   Overcast
5:54 PM 30.9 °F - 28.9 °F 92% 29.94 in 10.0 mi Calm Calm - 0.00 in   Overcast
6:54 PM 32.0 °F - 28.9 °F 88% 29.94 in 10.0 mi Calm Calm - N/A   Overcast
7:54 PM 33.1 °F - 28.9 °F 85% 29.94 in 10.0 mi Calm Calm - N/A   Overcast
8:27 PM 33.1 °F - 28.9 °F 85% 29.94 in 10.0 mi Calm Calm - N/A   Overcast
8:36 PM 33.1 °F - 28.9 °F 85% 29.93 in 10.0 mi Calm Calm - N/A   Overcast
8:54 PM 33.1 °F - 28.9 °F 85% 29.95 in 10.0 mi Calm Calm - N/A   Overcast
9:38 PM 33.1 °F - 28.9 °F 85% 29.92 in 10.0 mi Calm Calm - N/A   Overcast
9:54 PM 33.1 °F - 28.9 °F 85% 29.94 in 10.0 mi Calm Calm - N/A   Overcast
10:41 PM 33.1 °F - 28.9 °F 85% 29.93 in 10.0 mi Calm Calm - N/A   Overcast
10:54 PM 33.1 °F - 28.9 °F 85% 29.96 in 10.0 mi Calm Calm - N/A   Overcast
11:54 PM 33.1 °F - 28.9 °F 85% 29.94 in 10.0 mi Calm Calm - N/A   Overcast